Regional Weather Roundup
Issued by NWS

Home | Current Version | Previous Version | Text Only | Print | Product List | Glossary On
Versions: 1 2 3 4 5 6 7 8 9 10 11 12 13 14 15 16 17 18 19 20 21 22 23 24 25 26 27
000
ASUS45 KPSR 221410
RWRAZ

ARIZONA HOURLY REGIONAL WEATHER ROUNDUP
NATIONAL WEATHER SERVICE PHOENIX AZ
700 AM MST SUN OCT 22 2017

NOTE: FAIR INDICATES FEW OR NO CLOUDS BELOW 12,000 FEET WITH NO
SIGNIFICANT WEATHER AND/OR OBSTRUCTIONS TO VISIBILITY.

AZZ001>003-036-221500-
NORTHWEST ARIZONA

CITY           SKY/WX    TMP DP  RH WIND       PRES   REMARKS
BULLHEAD CITY  CLEAR     68  18  14 NE20      30.19R
KINGMAN        CLEAR     44  13  28 E5        30.30R
$$

AZZ004>008-015-016-018-221500-
NORTH CENTRAL ARIZONA

CITY           SKY/WX    TMP DP  RH WIND       PRES   REMARKS
GRAND CANYON   MOCLDY    26   7  44 NE6       30.42S WCI  19
WILLIAMS       PTCLDY    36   9  32 S9        30.40R WCI  29
PRESCOTT       PTCLDY    38  14  37 S3        30.35R
FLAGSTAFF      PTCLDY    26  11  52 CALM      30.43R
PAYSON         CLEAR     54   7  15 CALM      30.35R
PAGE           PTCLDY    43  17  35 CALM      30.37R
$$

AZZ009>014-017-221500-
NORTHEAST ARIZONA

CITY           SKY/WX    TMP DP  RH WIND       PRES   REMARKS
WINSLOW        CLOUDY    32   6  33 CALM      30.42R
SAINT JOHNS    PTCLDY    30  12  47 NE5       30.41R WCI  25
WINDOW ROCK    CLEAR     25   1  35 S3        30.43R
SHOW LOW       PTCLDY    36   7  30 E3        30.42R
$$

AZZ540-542>544-546-548-221500-
GREATER PHOENIX AREA

CITY           SKY/WX    TMP DP  RH WIND       PRES   REMARKS
PHOENIX        CLEAR     62  30  29 CALM      30.13R
BUCKEYE        CLEAR     57  10  15 N7        30.14R
GLENDALE       CLEAR     59  28  31 CALM      30.15
LUKE AFB       CLEAR     59  23  25 CALM      30.13R
DEER VALLEY    CLEAR     62  19  19 NE7       30.14R
SCOTTSDALE     CLEAR     59  34  39 CALM      30.16R
MESA-FALCON    CLEAR     64  21  19 N7        30.15R
MESA-GATEWAY   CLEAR     54  36  50 E7        30.16R
CHANDLER       CLEAR     57  45  62 CALM      30.14S
$$

AZZ539-553-221500-
SOUTHWEST MARICOPA COUNTY AND PINAL COUNTY

CITY           SKY/WX    TMP DP  RH WIND       PRES   REMARKS
CASA GRANDE    NOT AVBL
$$

AZZ503-504-507>509-221500-
SOUTHEAST ARIZONA

CITY           SKY/WX    TMP DP  RH WIND       PRES   REMARKS
TUCSON         CLEAR     56  35  45 SE8       30.21R
DAVIS-MONTHAN  CLEAR     57  36  44 S1        30.19R
RYAN FIELD     CLEAR     54  37  54 SE5       30.20S
NOGALES        CLEAR     47  35  63 NE5       30.25R
SIERRA VISTA   CLEAR     53  35  50 SE3       30.30R
DOUGLAS        CLEAR     42  28  57 N8        30.28S
SAFFORD        CLEAR     47  20  34 SE5       30.26R
$$

AZZ532-221500-
SOUTHWEST ARIZONA

CITY           SKY/WX    TMP DP  RH WIND       PRES   REMARKS
YUMA           CLEAR     65  18  16 CALM      30.12R
$$

CAZ041-043-047-048-061-525>527-560>570-221500-
SOUTHERN CALIFORNIA

CITY           SKY/WX    TMP DP  RH WIND       PRES   REMARKS
DOWNTOWN L.A.  CLEAR     63  35  35 CALM      30.09R
L.A. AIRPORT   CLEAR     65  35  33 NE3       30.09S
SAN DIEGO      CLEAR     60  48  64 CALM      30.08S
BURBANK        CLEAR     56  32  40 CALM      30.11R
ONTARIO        CLEAR     56  38  50 N3        30.12S
RIVERSIDE      CLEAR     59  31  34 NE6       30.12S
PALM SPRINGS   CLEAR     67  23  19 NW7       30.15S
EL CENTRO NAS  CLEAR     54  25  32 W8        30.13S
IMPERIAL       CLEAR     55  29  36 W8        30.11R
BLYTHE         CLEAR     55  15  20 CALM      30.16
NEEDLES        CLEAR     66  15  14 N9        30.20R
$$

NVZ020-UTZ003-221500-
SOUTHERN NEVADA-UTAH

CITY           SKY/WX    TMP DP  RH WIND       PRES   REMARKS
LAS VEGAS      CLEAR     55  18  23 S5        30.29R
SALT LAKE CITY MOCLDY    49  22  34 SE12      30.36F
$$

NMZ009-TXZ055-221500-
NEW MEXICO-WEST TEXAS

CITY           SKY/WX    TMP DP  RH WIND       PRES   REMARKS
ALBUQUERQUE    CLOUDY    39   9  29 CALM      30.38S
EL PASO        CLEAR     56  19  23 N14       30.29R
$$


........................KEY........................
SKY/WX - SKY CONDITION/WEATHER
TMP    - TEMPERATURE IN FAHRENHEIT
DP     - DEW POINT IN FAHRENHEIT
RH     - RELATIVE HUMIDITY IN PERCENT
WIND   - DIRECTION AND SPEED IN MILES PER HOUR (MPH)
VRB    - VARIABLE WIND DIRECTION
PRES   - MEAN SEA LEVEL PRESSURE IN INCHES OF MERCURY
         F - FALLING PRESSURE   R - RISING PRESSURE
         S - STEADY PRESSURE
VSB    - VISIBILITY IN MILES
HX     - HEAT INDEX IN FAHRENHEIT
WCI    - WIND CHILL INDEX IN FAHRENHEIT
TC     - TEMPERATURE IN CELSIUS WHICH IS ALSO KNOWN AS
         TEMPERATURE IN CENTIGRADE
AFB    - AIR FORCE BASE
         LUKE AFB IS LUKE AIR FORCE BASE
         DAVIS-MONTHAN IS DAVIS-MONTHAN AIR FORCE BASE
NAS    - NAVAL AIR STATION
         EL CENTRO NAS IS EL CENTRO NAVAL AIR STATION
N/A    - NOT AVAILABLE





USA.gov is the U.S. government's official web portal to all federal, state and local government web resources and services.